Theta_e
351 353 357 358 358 359 359 359 359 358 358 358 358 358 358 358 358 357 356 357 356 356 356 356 356 355 355 355 355 354 354 353 353 353 352 351 350 350 350 349 350 350 350 350 350 349 349 350 349 348 349 349 350 350 350 349 348 348 347 347 346 345 343 344 344 345 346 346 346 346 345 345 345 344 343 342 341 340 340 339 339 335 334 336 339
351 354 356 358 358 359 359 359 359 358 358 358 358 357 357 358 357 356 356 357 356 356 356 356 356 355 355 355 355 354 354 353 353 352 352 351 349 349 349 349 349 350 350 349 349 348 348 349 348 347 347 348 349 349 349 349 348 348 347 346 346 345 345 345 344 344 345 345 345 346 346 346 345 344 343 342 341 340 339 339 339 335 334 338 338
353 354 356 357 358 358 359 358 358 358 358 358 357 357 357 357 357 357 356 356 356 356 356 356 355 355 355 355 355 355 354 354 353 353 352 351 349 349 349 349 349 349 349 349 349 349 348 348 348 346 346 347 348 349 349 349 349 348 347 346 345 345 345 345 345 345 344 343 343 343 344 344 343 342 342 341 340 340 339 339 337 337 333 337 337
351 351 353 356 357 357 358 358 357 357 357 356 356 357 357 357 356 356 356 355 356 356 356 356 355 355 355 355 355 355 354 354 353 353 353 352 351 350 349 349 349 350 349 349 349 348 348 348 348 346 345 345 346 347 349 349 349 346 346 346 346 345 344 344 343 343 343 343 342 341 340 336 339 341 341 340 341 340 339 339 338 338 338 337 337
349 350 352 353 356 356 356 357 357 357 356 356 356 357 357 357 356 355 354 354 354 356 355 355 355 355 355 355 355 355 354 354 353 354 353 353 351 349 349 349 348 350 350 351 350 349 348 347 348 346 345 345 345 346 347 348 348 347 346 346 345 344 343 343 343 342 342 342 341 339 334 335 335 340 340 340 340 339 338 338 338 338 338 337 337
348 349 350 352 355 355 356 356 356 356 356 355 356 357 356 356 357 355 354 354 354 356 356 356 356 355 355 355 355 354 354 354 355 354 354 353 352 352 348 349 349 349 350 350 350 349 348 348 347 347 346 345 345 345 345 346 347 347 347 346 345 343 342 342 341 341 342 342 340 334 334 334 334 337 341 341 340 340 339 338 338 337 337 337 337
349 349 350 351 353 355 355 355 355 355 355 355 355 356 356 356 357 356 355 355 355 355 356 356 356 356 355 355 355 353 353 353 354 354 353 352 352 351 350 349 348 348 349 349 349 348 349 347 346 347 346 345 345 345 345 345 346 346 346 346 346 342 343 342 341 341 340 336 330 331 332 335 335 336 341 340 339 338 338 338 338 337 336 336 336
349 349 350 351 352 354 355 354 355 355 354 354 355 356 356 356 356 356 355 355 355 355 356 355 356 356 355 355 354 354 353 353 354 354 352 352 352 351 350 349 349 348 348 349 348 347 346 346 346 347 346 345 345 345 345 344 345 345 344 345 344 344 345 344 340 339 338 332 332 332 333 334 334 334 339 340 341 340 341 340 338 337 336 336 335
347 349 350 350 350 355 355 354 354 355 355 355 355 355 356 356 356 355 356 356 355 355 356 356 356 356 356 355 355 354 353 353 353 353 352 351 352 351 351 350 350 350 350 350 348 348 347 346 345 346 346 345 344 344 344 344 343 344 343 343 342 342 343 344 340 339 335 332 333 333 334 334 335 335 340 341 342 340 339 338 338 337 336 335 335
348 349 349 348 349 354 354 354 354 355 355 355 355 356 355 355 355 355 355 356 356 356 356 356 356 356 355 355 355 354 353 353 353 352 352 353 352 352 351 352 352 352 351 351 349 348 347 346 346 346 346 346 345 344 344 343 343 342 342 342 341 341 340 341 341 336 331 332 333 332 334 340 334 335 339 340 339 338 336 336 337 334 334 335 334
348 348 347 348 350 353 353 353 354 355 355 355 355 355 354 354 353 353 354 354 355 355 355 355 354 355 355 355 354 353 352 354 353 353 353 353 352 351 352 351 352 352 352 350 350 348 348 346 346 346 346 346 345 344 344 343 342 342 342 341 341 339 341 341 340 332 331 332 332 334 340 341 332 334 340 340 339 338 337 336 335 335 334 335 334
347 346 347 348 351 353 353 353 354 354 355 355 355 355 354 354 353 353 353 354 350 351 353 354 354 355 355 354 354 353 353 353 353 353 353 353 352 352 352 353 353 352 351 349 350 349 347 345 346 347 346 346 345 345 344 343 342 341 340 341 341 340 341 340 334 332 332 332 333 333 335 334 333 337 340 340 340 338 336 335 335 335 335 334 334
347 347 347 349 351 352 351 352 354 354 354 354 354 354 353 353 352 353 353 347 343 348 352 351 353 353 352 352 354 353 353 353 353 353 353 352 353 353 352 352 352 351 349 348 348 348 347 346 346 347 346 345 345 344 344 344 342 341 340 340 341 341 340 339 332 332 331 331 332 332 331 329 332 340 339 339 338 336 336 336 336 335 335 334 333
346 346 346 348 350 354 350 351 351 352 352 352 352 352 352 352 352 352 350 345 345 344 350 351 353 353 353 353 354 353 353 353 353 353 353 353 353 352 352 351 350 348 345 346 347 347 346 345 345 346 345 345 345 344 343 342 341 340 339 341 341 340 339 337 335 331 331 331 333 331 330 333 333 340 338 339 338 338 336 336 335 335 334 333 333
345 346 345 346 348 349 352 349 350 350 350 351 351 351 351 350 350 350 350 351 346 347 352 352 352 353 353 353 353 352 353 352 353 352 350 353 352 351 351 350 348 347 346 347 346 347 346 345 344 344 345 344 344 343 342 341 340 340 340 340 340 341 339 334 333 332 332 333 333 334 331 331 340 340 338 339 338 337 337 335 334 334 334 333 333
346 345 345 344 345 346 347 349 349 348 349 350 350 350 350 349 349 350 350 350 350 351 351 352 352 352 352 352 352 352 352 351 351 351 351 352 351 350 349 348 347 348 347 347 346 346 345 344 344 344 344 344 343 342 341 341 340 340 339 338 339 340 340 338 332 331 331 332 333 333 330 334 340 339 338 338 338 336 335 334 334 334 333 333 332
345 345 343 343 343 343 344 345 346 348 347 348 349 350 349 349 349 349 349 349 351 351 351 352 351 352 351 351 351 351 351 351 350 350 351 351 349 348 348 348 348 346 347 346 346 346 344 344 345 345 344 343 342 343 341 341 340 339 338 339 339 340 340 337 331 330 330 333 333 332 331 334 338 338 337 337 336 336 335 335 334 333 332 333 332
343 343 342 342 341 342 342 341 340 341 341 345 348 348 349 349 349 349 349 349 350 350 351 350 350 351 351 351 351 351 351 351 350 350 350 349 349 348 348 348 348 348 346 345 344 345 344 344 344 345 344 343 342 342 341 339 339 339 339 339 340 340 337 336 330 331 331 335 331 335 334 339 339 338 336 336 336 335 334 334 333 332 332 332 332
341 342 342 341 340 339 338 337 339 338 338 337 339 346 348 348 348 349 350 349 350 350 350 350 351 351 351 351 351 352 351 351 350 350 348 347 348 349 347 347 348 347 346 345 344 344 344 344 344 343 343 343 342 341 340 340 339 339 339 340 340 338 336 334 331 331 333 331 331 332 332 340 339 338 337 336 334 334 333 333 332 332 332 331 332
339 340 340 340 340 337 335 336 335 336 336 337 338 340 348 349 349 349 349 348 347 349 350 350 351 352 352 350 350 351 351 350 350 349 348 347 346 346 347 347 347 347 345 345 344 344 344 344 343 343 342 341 341 340 340 340 339 339 339 339 339 335 329 329 331 331 330 330 333 332 338 339 338 338 337 336 333 333 333 333 332 332 332 331 331
337 336 336 337 338 337 335 334 335 336 337 337 338 339 343 349 348 349 348 348 349 349 349 349 350 351 351 349 345 346 345 346 345 346 349 345 345 346 347 347 347 346 346 345 345 344 344 343 343 342 341 341 340 340 340 340 339 339 340 340 337 329 329 329 330 331 330 332 334 333 339 339 338 337 337 335 333 333 332 332 332 332 331 331 332
330 330 333 336 336 336 335 335 335 336 337 339 341 342 343 346 341 342 345 346 348 348 347 345 349 343 349 347 345 345 341 340 343 349 345 346 347 347 347 347 346 344 345 345 344 344 344 343 342 342 341 341 340 332 334 338 339 339 340 340 329 328 328 330 329 330 331 331 333 336 339 339 338 338 337 335 334 333 332 331 332 331 331 331 331
317 322 330 334 334 335 336 336 336 336 338 339 342 342 341 340 339 341 346 349 349 349 344 348 345 345 344 347 344 341 339 341 342 341 343 346 346 347 347 347 346 345 345 345 344 343 343 343 342 341 341 340 334 328 328 325 324 337 336 329 326 327 328 328 328 330 331 331 331 339 339 339 338 338 337 335 334 333 332 331 331 331 330 330 329
311 317 321 329 333 333 335 337 337 337 338 339 341 339 339 338 339 339 340 340 343 348 346 344 344 347 346 342 339 341 340 338 346 346 347 342 344 346 347 346 346 345 345 343 343 343 343 342 342 341 340 337 328 327 329 326 325 323 326 326 325 327 327 327 328 329 330 335 333 340 340 339 338 338 337 336 334 333 333 332 331 331 330 330 330
311 313 322 323 326 331 335 337 338 337 338 339 339 337 336 336 336 336 338 336 337 339 338 340 339 341 340 340 340 339 339 338 340 340 336 338 340 338 342 343 342 341 342 335 336 339 337 333 335 335 329 330 329 326 328 327 327 326 325 326 327 327 328 328 327 328 330 332 333 340 340 340 338 338 337 335 334 334 333 332 332 331 330 330 330
313 309 310 314 319 326 332 334 338 338 337 336 335 339 339 336 335 336 336 335 335 335 335 336 337 338 339 341 341 339 339 339 337 337 336 336 338 340 341 342 341 339 339 335 332 333 330 329 329 328 327 329 330 329 328 329 326 325 325 325 326 328 327 326 327 327 329 330 334 340 339 340 339 338 338 336 335 334 334 333 331 331 330 330 331
308 310 313 315 314 317 320 322 329 332 335 338 335 335 333 334 335 336 336 334 334 333 333 336 337 337 338 341 338 339 340 340 335 338 340 336 333 335 340 342 340 338 336 334 332 332 330 329 327 326 325 326 328 328 327 330 327 327 326 327 328 328 327 326 327 327 329 331 335 339 339 339 339 338 338 337 335 335 334 334 333 332 330 330 330
309 309 311 313 316 315 316 318 321 329 333 335 334 333 331 335 339 341 336 342 337 332 331 333 335 335 338 338 341 340 341 338 336 337 336 334 335 338 336 339 340 338 336 334 332 330 330 329 327 327 326 326 326 327 327 329 329 328 327 327 328 327 327 326 327 328 329 331 333 338 338 338 338 339 337 337 336 335 335 334 334 332 330 330 329
307 307 307 310 313 317 317 317 317 319 330 333 332 330 331 332 332 333 334 343 333 332 333 333 333 334 335 338 341 337 335 333 334 334 334 334 337 337 336 336 338 338 336 332 332 331 330 330 328 326 324 324 324 325 326 329 329 328 326 327 328 328 327 327 327 327 329 330 332 336 339 338 337 338 337 337 337 336 336 335 334 332 331 330 329
307 308 308 309 311 314 315 315 320 321 326 328 327 327 328 329 329 331 335 338 331 332 333 331 330 331 332 334 336 335 334 332 333 333 335 334 336 337 335 336 336 337 335 332 330 329 330 328 328 326 325 324 324 324 326 327 329 328 327 328 328 328 326 327 327 327 328 330 331 333 339 337 336 337 337 337 338 337 337 336 335 333 332 331 331
309 310 311 312 317 313 313 315 319 327 319 320 321 324 327 327 330 330 332 330 332 334 332 332 330 331 332 335 335 337 337 333 332 332 332 334 334 335 335 335 335 335 337 336 337 334 330 328 327 327 326 325 325 324 326 327 328 329 329 329 328 327 327 327 327 328 329 330 330 330 335 339 336 335 336 336 338 338 337 336 336 334 334 332 332
311 311 311 312 312 312 314 315 315 320 316 316 323 322 323 326 326 324 326 328 333 329 331 332 335 331 334 332 333 335 338 334 333 332 333 333 333 334 334 335 334 334 336 336 335 336 335 336 335 332 331 329 328 324 325 327 328 329 329 329 327 326 326 327 327 328 329 329 330 330 331 334 337 335 336 335 336 338 337 336 337 336 334 333 333
311 312 313 313 312 312 312 312 313 313 313 313 315 318 321 322 321 321 326 331 329 327 328 327 330 332 333 333 332 335 336 333 335 334 336 334 333 333 334 334 336 335 334 336 337 335 335 334 333 334 332 331 332 329 325 326 328 328 329 329 327 327 327 327 327 328 328 329 329 329 329 330 331 335 334 336 335 336 338 337 337 336 335 334 334
311 311 313 313 316 316 316 316 316 316 316 314 314 316 317 317 319 318 326 321 323 325 328 325 327 326 332 336 335 335 335 335 335 335 336 335 337 336 336 336 336 335 334 335 334 334 334 335 335 334 335 331 329 329 323 324 326 326 326 328 327 326 326 327 326 328 328 328 329 328 328 327 328 329 330 337 336 334 335 338 337 336 335 334 333
312 312 312 314 315 315 317 315 315 312 313 313 313 313 314 314 313 313 316 319 322 319 321 321 321 323 327 330 334 336 335 334 333 332 334 333 333 334 335 337 338 336 334 334 334 333 334 333 332 332 332 331 330 329 325 324 325 325 325 326 327 326 326 327 325 327 329 328 328 328 328 327 327 328 329 328 335 335 334 337 338 338 336 335 333
312 312 314 314 314 315 315 312 313 312 313 315 312 312 313 314 317 323 313 313 316 317 317 320 321 322 326 325 329 334 335 333 334 335 332 332 330 331 335 337 339 337 335 333 333 332 333 333 333 333 330 331 329 328 326 324 325 325 325 326 327 327 325 325 325 326 329 329 328 327 327 327 327 327 331 327 327 330 334 336 336 337 337 336 334
312 313 313 313 313 315 316 311 311 313 314 314 312 313 312 312 312 313 313 313 313 313 316 319 322 324 324 324 325 331 330 333 336 335 333 332 332 333 332 331 335 337 335 334 332 331 333 334 333 334 333 332 333 330 326 325 325 325 324 324 325 326 326 325 325 326 328 328 328 327 327 327 328 333 329 327 328 328 332 334 336 335 335 335 336
313 313 313 312 311 311 310 312 312 312 312 312 312 312 313 314 314 316 321 313 315 317 318 321 321 321 321 321 324 327 329 330 333 333 331 334 334 333 332 332 335 333 330 331 331 332 331 333 334 335 336 336 333 331 328 326 328 326 324 324 324 324 325 325 325 327 325 327 328 328 328 328 327 328 328 327 328 328 328 331 335 334 335 333 335
313 312 312 311 310 309 312 316 314 312 312 312 314 314 314 313 313 313 313 313 313 315 317 318 318 319 320 321 323 324 325 325 328 329 330 332 331 330 331 334 334 333 331 332 330 331 332 333 334 335 336 336 333 331 330 328 328 328 327 325 324 324 324 325 326 325 325 326 327 330 330 328 328 327 327 326 326 327 328 328 329 331 332 334 334
312 312 312 310 309 310 311 314 313 313 312 313 314 313 314 313 311 311 311 313 312 316 314 315 316 317 320 320 320 319 323 324 322 323 325 325 324 325 327 329 331 331 329 329 329 331 331 333 334 333 332 332 335 333 330 327 328 328 326 326 325 323 322 324 324 325 326 325 326 327 329 330 329 328 327 326 326 327 327 328 329 329 330 333 334
311 312 311 310 310 311 312 313 313 313 314 313 313 312 310 306 308 310 309 309 312 312 312 312 313 315 316 318 319 319 319 321 321 320 319 324 321 322 323 325 327 329 330 331 332 331 330 330 330 329 328 330 333 331 332 328 324 322 323 323 324 324 323 322 323 324 325 325 325 325 326 328 329 329 328 327 326 326 327 327 328 328 328 330 332
310 311 310 310 311 312 313 313 312 314 313 314 315 313 309 305 307 308 306 311 312 309 309 310 313 317 316 315 316 313 313 316 321 319 318 318 317 318 321 323 324 325 327 328 329 333 333 331 330 329 329 328 327 330 329 328 322 322 320 319 321 322 322 321 321 322 324 325 325 325 325 325 327 329 329 328 327 326 326 327 327 328 328 328 330
311 311 311 311 312 312 313 313 313 314 313 315 313 310 310 309 306 306 310 309 310 310 308 313 318 313 313 315 314 312 312 312 314 322 319 319 317 317 318 319 321 325 324 324 324 325 327 331 330 328 329 328 329 331 328 327 323 325 323 319 316 316 318 320 321 321 322 323 324 325 326 325 326 326 328 328 327 327 327 326 326 327 327 327 329
311 310 310 311 313 313 312 313 313 314 314 315 315 310 312 310 309 309 309 309 310 317 310 310 312 312 312 313 313 312 313 313 314 317 316 316 316 316 317 317 318 321 322 323 324 325 324 326 329 331 327 326 327 327 329 328 326 323 317 318 317 315 311 315 318 321 322 321 322 324 326 326 326 326 324 325 326 327 328 328 326 327 327 328 328
310 310 310 312 314 312 312 314 313 313 313 316 312 313 314 311 313 313 313 312 312 307 306 307 310 314 313 310 311 312 312 313 313 315 319 314 315 315 316 317 318 318 320 320 320 322 324 324 326 327 327 326 327 324 326 328 327 328 321 317 314 313 313 314 315 317 320 321 322 322 324 326 326 325 323 324 325 326 327 328 327 327 327 327 328
310 310 310 313 314 312 313 314 312 312 313 312 312 313 312 311 310 309 308 307 306 305 303 305 306 307 307 310 312 312 312 312 313 313 316 318 315 315 315 317 317 317 319 317 318 319 320 322 325 326 326 327 326 324 324 325 327 326 327 325 321 316 316 319 317 312 317 321 322 323 323 324 326 325 324 324 324 324 325 327 327 326 327 328 328
310 311 311 312 314 313 313 315 313 311 313 312 313 313 309 310 311 310 309 309 307 304 303 304 306 306 307 308 310 312 312 312 313 314 315 317 314 314 314 315 315 316 320 316 316 317 318 321 323 323 325 325 326 325 326 324 326 326 326 327 326 323 323 319 314 314 312 315 319 321 322 324 325 325 323 323 324 324 324 326 327 327 326 328 328
311 311 311 313 313 313 314 314 313 313 312 312 312 311 310 309 310 310 310 307 306 304 306 307 307 310 306 308 310 312 313 313 312 313 313 317 315 313 313 313 314 316 318 315 315 316 317 318 319 319 322 324 325 325 326 326 323 324 327 327 325 324 325 324 323 318 313 311 314 319 321 322 322 323 324 322 323 324 323 324 325 327 327 327 328
311 312 312 313 314 315 315 315 313 312 311 312 312 311 312 311 312 312 311 309 305 307 309 312 310 310 308 309 310 311 309 312 313 313 313 315 317 313 311 311 311 313 318 315 314 316 316 315 317 317 318 319 322 322 323 325 326 325 323 324 325 324 326 327 327 323 317 314 315 316 317 319 321 322 322 322 322 323 324 324 325 325 327 327 328
312 314 313 314 313 316 316 315 312 311 311 312 312 311 312 314 311 310 311 309 308 307 306 307 307 306 306 306 307 308 310 311 310 310 311 312 311 312 311 310 310 313 317 313 314 315 315 315 315 314 315 316 318 321 322 323 325 325 324 323 323 324 324 325 324 323 320 319 316 316 316 316 315 318 321 322 322 321 322 323 324 325 325 326 328
313 313 314 314 313 316 316 315 313 311 312 311 311 311 312 313 311 308 309 308 307 307 305 305 306 305 305 306 306 307 310 310 311 310 310 311 312 314 310 311 313 316 314 312 312 312 313 313 314 314 314 314 315 316 320 322 322 323 324 325 325 324 323 321 322 321 321 319 318 318 319 319 317 317 320 323 324 324 322 321 321 323 325 324 326
Wind_Speed
4 6 6 8 9 10 11 12 12 13 13 13 13 13 13 12 12 13 14 14 14 14 14 14 14 14 13 13 13 13 14 15 15 13 13 13 14 14 14 14 14 14 15 15 16 15 16 16 16 16 16 16 17 17 18 18 18 19 19 19 20 20 19 18 19 19 16 15 14 13 16 16 17 18 17 18 18 17 16 16 13 9 7 11 15
8 7 6 7 8 9 11 12 13 13 13 13 13 12 12 12 12 13 13 14 15 15 14 13 13 12 13 13 13 12 13 14 13 13 12 13 14 14 13 14 14 14 15 16 15 15 15 15 15 15 15 16 16 18 18 18 18 19 20 19 19 19 19 18 18 18 16 15 15 16 17 18 18 17 17 17 16 16 16 15 15 7 5 13 15
8 8 6 8 9 9 10 11 12 13 13 13 13 13 12 12 11 12 12 13 14 15 14 13 13 13 12 12 12 12 12 13 13 12 12 12 14 13 13 14 14 15 15 16 16 16 15 15 15 15 14 15 15 16 17 18 19 18 19 19 18 19 18 17 17 17 16 14 12 13 16 17 16 16 16 16 15 15 15 15 14 13 8 14 13
9 5 5 8 11 9 10 11 12 13 14 14 14 14 13 12 12 11 12 12 12 13 14 13 12 12 12 11 11 11 12 12 12 12 11 11 13 14 14 14 14 15 15 15 16 15 14 14 14 14 14 14 14 16 17 18 18 17 18 17 17 17 17 17 17 18 17 14 12 9 4 6 11 16 15 15 15 16 15 15 14 14 14 13 14
7 5 5 5 6 8 9 10 11 12 13 14 14 15 14 13 12 11 12 12 13 12 14 14 13 13 13 12 12 11 10 11 12 11 11 10 11 13 13 14 14 14 14 14 15 15 14 13 14 14 13 13 14 15 16 16 16 14 14 16 15 15 16 17 17 17 16 14 11 7 4 6 7 14 15 15 15 14 14 14 14 14 14 14 13
6 4 4 4 5 7 8 9 9 12 12 12 12 13 14 13 12 11 11 12 11 10 11 12 12 12 14 13 12 12 11 9 9 10 10 10 10 10 12 13 13 13 14 14 14 15 14 13 14 13 14 12 13 14 14 14 13 12 13 13 14 16 17 16 16 16 15 14 9 4 3 2 4 9 16 15 14 14 14 14 13 13 13 13 13
6 3 4 4 5 7 9 8 8 10 11 12 11 10 12 13 11 11 11 11 11 10 10 9 10 11 13 13 13 12 12 11 9 9 10 10 9 10 11 12 12 13 13 13 13 14 14 13 12 13 14 13 12 12 12 12 12 12 11 10 10 16 17 15 15 14 12 7 4 3 3 2 2 5 15 13 13 13 13 13 13 13 12 12 12
4 4 4 3 4 9 10 9 8 9 10 10 11 11 9 11 12 11 11 11 11 10 10 9 9 10 12 13 12 11 12 12 10 9 11 11 9 9 10 10 10 11 12 13 13 13 14 12 12 12 13 13 11 11 11 11 11 11 11 11 10 8 9 12 15 14 12 5 4 3 3 3 3 4 13 14 13 14 14 14 12 12 12 12 11
4 4 4 4 4 12 10 8 8 8 8 8 9 10 9 9 10 11 11 11 11 11 11 11 10 10 10 12 12 11 10 11 11 10 10 12 10 9 10 10 9 10 10 11 12 12 15 13 13 11 12 12 10 10 10 10 10 11 11 11 9 9 9 8 12 13 7 5 6 4 3 3 3 3 12 14 14 14 13 11 10 12 12 11 11
5 4 4 3 4 10 9 8 8 8 8 8 9 9 10 8 7 7 8 10 10 10 10 11 11 10 10 11 12 12 11 10 9 10 10 10 11 11 11 11 10 11 10 11 11 13 15 12 10 11 11 11 9 9 10 11 10 10 9 9 8 7 7 5 9 8 5 6 5 4 4 5 2 3 10 13 13 13 13 12 8 9 9 11 11
5 4 3 4 5 8 8 8 8 8 8 8 9 9 11 9 8 6 7 9 11 11 10 11 11 10 10 11 12 12 12 11 10 9 10 10 12 13 12 12 11 11 11 11 14 15 14 13 9 9 9 9 7 8 9 10 9 8 8 8 8 6 4 2 8 5 5 5 5 4 7 9 3 3 12 13 14 13 12 11 11 10 11 11 10
6 4 3 3 8 7 8 8 8 8 10 10 10 9 11 9 8 7 7 8 10 10 9 10 10 10 11 11 12 11 12 11 10 10 10 11 12 13 12 12 12 11 11 12 15 15 15 14 10 9 7 8 6 6 8 10 9 8 7 7 7 6 7 6 7 5 5 5 5 4 4 5 4 7 13 13 14 13 12 11 11 11 11 10 10
8 4 4 4 4 8 8 8 9 9 9 10 10 10 9 9 8 7 6 9 5 5 11 9 9 9 9 10 11 11 11 11 10 9 10 11 11 12 13 13 12 12 11 13 14 14 14 14 11 10 7 8 6 4 6 9 8 7 5 6 7 8 9 8 5 6 5 4 4 4 4 3 4 10 11 12 12 12 12 11 11 11 11 10 10
7 6 5 4 4 10 9 9 10 12 11 10 9 8 8 8 8 8 8 13 11 6 9 9 10 9 9 9 10 10 10 11 10 10 11 11 11 12 12 12 12 12 11 12 12 13 13 13 11 8 6 6 7 5 5 7 7 6 5 5 7 9 9 6 5 3 4 4 5 4 4 3 4 9 11 11 12 12 11 11 11 11 10 10 9
8 7 4 3 5 6 12 11 10 10 10 9 9 8 8 8 8 8 7 9 15 7 10 11 10 10 10 10 9 10 10 11 10 10 12 12 12 12 12 13 13 13 12 12 12 12 14 13 11 8 6 5 5 5 5 6 5 4 5 6 8 8 8 2 2 2 3 3 3 4 3 3 7 9 11 11 11 11 11 11 10 10 10 9 9
8 6 6 5 4 5 5 10 11 10 9 9 8 8 8 9 8 8 7 8 11 10 11 11 11 10 10 10 10 10 10 10 10 10 11 11 12 12 13 13 13 14 12 12 12 13 13 13 11 8 6 5 5 5 5 6 5 4 5 6 6 5 5 4 5 2 1 3 3 3 2 3 9 9 11 11 11 10 10 10 10 10 9 9 9
7 6 7 6 6 5 6 5 8 12 10 8 8 7 7 8 8 8 8 8 9 10 10 11 11 11 10 10 10 10 10 11 11 11 12 12 13 13 13 13 14 13 13 12 12 13 13 14 12 10 6 4 4 5 6 6 5 4 4 5 5 5 5 7 7 4 2 2 3 3 2 2 7 8 10 10 10 10 10 11 10 10 9 10 9
8 8 7 7 6 6 5 4 5 4 4 6 7 7 6 7 7 8 8 8 8 9 10 10 11 11 11 10 11 10 10 11 11 11 12 12 13 13 13 13 13 13 13 12 11 12 12 13 12 10 7 5 3 4 5 5 4 3 3 4 5 7 5 10 7 5 4 4 2 2 3 6 9 9 9 9 9 9 9 9 10 10 10 9 9
7 8 8 7 7 6 5 5 5 4 3 3 2 4 7 7 8 8 8 8 8 9 9 10 10 10 10 11 10 10 10 11 10 11 11 12 13 14 13 13 12 13 13 12 11 12 12 12 11 9 7 5 3 2 4 4 3 3 3 4 7 6 5 8 7 6 4 4 4 4 3 8 8 9 9 9 8 8 8 8 9 10 9 9 9
5 6 5 5 6 6 4 4 4 3 3 2 3 3 5 7 7 8 9 8 7 8 8 8 10 9 10 10 10 8 9 9 13 9 11 12 13 10 13 13 12 12 13 12 12 11 12 12 11 9 7 5 3 1 3 3 2 2 3 5 7 6 2 5 7 6 5 4 4 4 6 9 10 9 9 8 7 6 6 7 8 9 8 8 8
4 4 4 5 5 6 5 4 3 4 3 3 2 3 3 6 5 7 8 8 8 10 11 10 7 8 8 8 7 5 4 4 7 6 11 8 10 13 13 14 12 11 12 12 12 11 11 11 11 9 8 6 3 2 1 2 0 1 2 5 7 4 3 4 6 6 5 4 5 4 9 9 10 10 9 8 6 6 6 6 7 7 7 8 8
5 4 3 6 6 5 6 5 3 3 3 3 2 2 2 4 3 3 3 4 5 7 7 4 6 3 5 6 4 4 4 4 2 6 5 6 8 12 13 14 12 11 11 11 11 10 11 11 10 8 8 7 5 1 1 2 2 2 3 6 5 3 3 4 5 5 5 4 5 6 12 10 11 11 10 8 7 7 5 5 6 6 6 7 7
4 4 4 5 5 5 5 5 5 4 4 3 3 2 3 3 3 3 3 5 5 7 3 5 4 4 5 4 4 4 4 4 6 5 4 11 7 11 13 14 12 11 10 10 9 9 9 9 10 8 7 8 4 2 1 0 1 3 3 3 3 2 2 4 4 5 6 5 4 10 12 11 12 11 10 9 9 7 6 5 5 5 6 6 6
5 6 6 3 4 4 5 6 7 6 6 5 4 3 3 3 3 3 3 2 3 4 4 3 3 5 4 4 3 4 4 4 8 10 8 4 7 10 14 14 14 12 11 7 9 8 9 9 9 9 6 3 2 2 1 1 1 2 2 1 3 1 2 4 4 4 5 6 5 13 11 12 12 11 11 10 10 9 7 6 5 5 5 5 5
5 4 5 4 4 5 4 4 4 4 4 4 3 3 3 3 2 2 3 2 2 2 1 1 1 3 4 4 4 3 4 3 4 3 3 4 4 4 6 6 5 6 9 4 4 4 5 3 3 4 3 3 2 2 2 2 1 1 2 1 1 2 2 4 3 4 5 4 5 11 11 11 12 12 12 11 10 10 8 7 6 6 5 5 5
4 7 5 4 3 3 4 3 3 3 3 3 3 3 4 4 3 3 3 2 2 2 2 2 3 4 4 4 6 5 4 4 3 4 4 2 3 4 5 5 5 5 6 5 3 4 4 3 3 3 3 3 3 3 3 3 3 2 3 2 2 4 2 5 3 4 4 5 5 12 11 10 13 13 12 11 10 10 9 7 7 6 6 5 6
8 7 6 4 5 5 3 3 3 3 3 3 3 3 3 3 3 3 4 2 3 3 3 2 3 4 4 4 5 5 5 4 2 0 5 5 2 2 4 5 6 5 4 5 4 3 5 4 3 3 2 2 3 3 4 4 3 3 3 3 3 5 4 6 5 4 5 6 7 13 10 10 11 12 12 11 11 10 9 8 7 7 6 5 5
9 7 7 6 6 5 4 4 3 4 3 4 4 4 3 3 3 4 3 3 3 4 3 3 2 3 3 4 4 4 4 5 6 0 2 1 6 4 4 5 5 5 4 4 4 3 3 4 4 3 3 3 3 4 3 4 4 4 4 5 4 6 4 6 6 5 6 7 7 10 11 10 10 11 13 12 11 11 10 8 8 7 6 6 6
8 6 5 6 4 4 5 5 3 4 4 4 4 2 2 3 3 3 3 4 3 3 3 2 3 2 3 3 5 4 4 3 5 4 3 4 4 5 5 6 5 5 4 3 3 4 4 4 4 4 3 4 5 4 3 4 4 4 5 5 4 3 4 5 6 5 4 5 6 8 12 11 11 11 13 13 12 12 11 9 8 7 7 7 5
7 6 6 4 4 5 7 6 4 5 4 5 3 3 3 4 3 3 3 4 3 3 3 2 2 2 3 2 2 3 3 2 3 4 5 3 3 4 4 5 5 5 5 4 2 2 4 3 4 5 5 4 4 6 5 6 6 5 5 5 4 4 6 6 6 6 5 5 5 6 12 12 12 12 12 13 14 13 12 12 10 8 7 7 7
8 7 6 5 4 6 6 6 5 5 4 5 3 3 3 3 4 3 2 4 3 3 3 3 1 1 1 0 0 2 4 2 2 3 3 4 3 5 5 4 4 4 4 4 2 1 2 4 3 2 3 4 6 6 6 7 7 6 6 5 6 5 6 7 6 5 6 6 5 5 7 12 12 12 12 12 13 14 13 12 12 10 9 8 7
9 7 6 4 6 6 6 5 5 4 5 4 4 4 3 3 3 3 3 3 3 4 4 4 3 1 1 0 0 1 3 3 3 4 5 5 5 5 3 3 4 4 4 3 3 2 1 1 1 2 3 3 3 4 6 6 7 7 7 6 3 5 7 7 8 7 6 5 5 6 5 7 10 11 11 12 12 12 13 12 13 12 10 10 9
5 9 7 7 6 5 7 5 5 4 6 5 5 3 3 2 3 3 2 2 2 2 3 3 3 3 2 1 1 1 0 3 5 6 6 5 5 5 5 5 5 5 5 5 4 1 1 1 1 1 1 1 3 4 6 6 7 8 7 6 5 5 5 7 7 7 7 7 6 6 6 5 5 9 10 10 11 11 12 12 14 12 11 10 10
8 6 7 7 4 4 5 4 5 6 5 5 5 4 3 2 1 1 1 3 3 3 2 2 2 2 3 3 3 2 3 3 3 5 4 2 3 5 5 5 4 5 5 5 5 4 3 2 1 1 4 1 2 5 5 7 7 6 6 5 5 5 4 6 7 7 7 7 7 7 6 5 6 5 6 9 11 11 11 11 14 13 12 11 10
9 7 9 7 6 6 5 5 4 5 5 6 5 4 3 3 3 3 2 1 4 1 2 3 3 2 1 2 3 3 4 5 5 4 4 4 1 1 3 4 5 4 5 6 6 5 4 2 4 6 4 3 6 7 6 8 8 7 7 6 6 5 4 6 6 6 6 7 7 7 7 7 6 6 6 5 8 11 10 10 15 13 13 12 10
11 9 8 7 7 5 5 5 4 5 5 5 4 4 3 3 4 4 4 4 4 3 1 1 2 2 1 2 1 2 3 2 2 2 5 4 5 5 3 4 6 4 3 1 2 3 5 4 5 5 5 4 4 3 4 6 7 8 8 7 7 5 6 5 5 6 6 5 6 6 7 7 7 7 7 6 6 7 10 11 15 13 13 13 12
11 11 10 8 7 6 6 6 5 6 5 4 4 3 3 4 4 4 4 5 5 4 3 3 3 3 2 3 3 3 1 3 4 3 2 5 5 5 2 3 3 3 2 3 3 3 4 4 5 6 4 4 4 4 2 4 6 7 7 7 7 7 7 6 6 6 6 7 7 7 7 7 7 8 7 7 6 6 9 12 13 13 13 12 14
11 11 11 11 10 8 7 6 5 5 5 5 4 4 2 3 3 3 5 7 5 5 5 5 3 2 2 3 3 4 4 4 3 2 1 3 3 3 4 3 3 1 3 1 1 2 3 3 4 5 4 5 5 4 3 3 5 6 5 6 6 7 7 7 7 6 7 7 7 8 8 8 8 8 7 6 7 7 6 9 13 13 13 12 13
9 10 10 10 9 8 7 5 5 5 4 4 2 2 3 3 3 4 4 4 4 4 5 5 3 3 2 2 3 4 5 5 5 4 4 3 3 2 2 3 2 2 2 2 3 3 3 3 5 6 1 3 5 2 1 3 6 5 6 6 6 7 7 7 7 7 7 7 8 8 7 8 7 7 7 7 7 7 7 6 6 6 8 13 13
9 9 10 9 10 8 6 6 6 6 4 3 3 3 3 3 3 2 4 3 3 5 3 3 2 3 2 3 3 4 4 5 4 4 3 3 2 2 1 1 3 4 4 4 2 2 4 6 7 5 4 5 4 3 1 5 6 1 2 3 5 6 6 7 6 7 7 7 7 7 7 7 7 8 8 8 8 7 8 7 7 7 7 10 14
9 10 10 8 9 11 9 9 8 6 6 4 3 3 3 3 1 2 2 1 3 4 3 1 2 3 3 3 3 4 4 4 3 3 3 3 2 1 1 2 1 4 3 3 4 5 6 7 4 1 0 6 5 3 3 5 2 6 1 2 4 4 5 6 8 7 7 7 6 6 6 7 8 8 8 8 8 8 8 8 8 7 7 7 9
9 11 12 11 9 9 10 10 7 7 7 7 5 4 3 6 6 6 3 2 3 3 2 1 2 1 3 4 3 4 4 4 4 3 3 3 3 3 3 4 2 1 1 2 2 2 4 5 3 3 5 5 3 3 3 5 2 4 2 2 3 4 4 4 6 6 7 6 6 7 6 7 8 8 8 8 8 8 8 8 8 8 7 7 7
13 12 11 10 9 9 9 7 7 8 7 6 5 4 2 4 4 4 6 2 1 0 2 1 1 3 3 3 3 4 4 4 3 2 2 3 3 3 3 2 4 2 2 3 2 2 2 3 2 4 2 4 2 1 5 5 2 1 2 2 3 3 3 3 4 5 6 6 6 7 8 7 8 8 8 8 8 8 8 8 8 8 8 8 8
11 9 9 12 9 10 8 7 7 7 7 6 6 4 5 4 3 6 2 2 2 2 4 3 2 3 3 1 3 4 4 4 3 3 3 2 3 3 3 4 3 3 2 2 3 4 4 3 2 2 2 5 0 1 2 5 3 3 3 4 2 2 3 6 7 6 5 6 6 8 7 8 7 7 6 8 9 8 8 8 10 9 9 9 8
11 12 12 11 10 12 10 9 8 7 6 7 6 6 7 6 6 5 4 5 4 3 3 2 1 1 1 1 2 3 3 2 1 3 3 3 3 3 4 4 5 4 4 5 4 3 3 3 1 1 2 3 2 3 6 8 7 4 3 2 1 1 3 2 3 7 2 4 7 8 7 8 8 7 7 8 8 9 9 9 9 8 9 9 8
12 13 12 12 11 10 9 8 6 5 7 8 9 8 9 9 7 7 5 3 3 3 4 4 3 3 3 1 0 1 3 2 1 2 3 3 4 3 4 4 5 5 5 4 3 5 6 5 5 3 3 2 2 3 2 6 5 6 6 2 5 1 2 2 2 4 1 3 5 7 9 8 8 7 7 7 8 8 8 9 8 9 9 8 9
13 11 10 10 10 10 10 9 8 6 7 8 8 8 7 7 8 8 7 8 7 3 2 3 4 3 1 2 1 0 1 2 1 2 3 3 4 4 4 4 3 4 3 5 5 4 3 3 4 5 4 2 0 2 2 2 3 4 4 5 3 4 4 1 4 1 2 2 2 5 8 8 7 7 8 8 7 7 7 8 9 9 9 9 9
13 10 9 8 11 11 10 9 7 7 7 8 8 8 9 6 6 5 5 6 7 6 4 4 3 3 3 2 1 0 0 0 1 2 2 3 4 4 3 3 4 3 3 3 3 3 3 3 3 3 4 3 2 2 4 0 2 2 2 4 4 3 7 7 4 5 2 1 4 3 2 4 4 7 8 8 8 8 8 8 9 9 8 9 9
10 12 12 12 10 10 10 8 8 8 7 9 9 6 8 8 7 7 5 4 4 5 4 3 4 3 3 1 0 0 1 2 2 3 3 4 3 4 4 4 4 3 3 4 3 3 3 4 5 6 5 5 4 2 1 3 1 3 3 4 3 6 8 6 2 0 3 3 5 4 5 3 2 4 6 6 6 6 8 9 9 10 9 9 9
12 12 11 8 8 8 10 10 9 8 8 9 9 7 7 7 7 6 7 5 4 3 4 5 4 3 4 2 1 1 0 1 1 3 4 3 4 4 4 4 4 4 4 5 5 5 5 4 3 3 3 4 4 5 3 3 3 3 3 3 4 4 4 3 5 5 4 5 8 5 4 4 5 4 1 4 6 6 7 7 7 9 9 8 9
8 9 8 9 9 10 11 12 11 8 9 10 9 9 7 7 8 7 8 8 6 7 5 4 4 3 4 3 2 2 1 1 0 1 4 4 4 4 4 4 4 5 6 5 5 4 5 5 4 3 3 3 3 3 4 3 3 4 5 4 5 6 7 6 6 5 5 5 6 9 8 6 5 6 5 4 4 6 6 5 6 7 7 7 8
Wind_Direction
170 147 152 147 143 140 139 140 138 139 140 138 136 138 136 135 133 130 126 120 115 112 111 111 111 111 108 106 106 107 106 107 108 107 108 107 105 103 103 101 99 97 96 94 94 96 97 97 98 101 104 107 109 109 109 109 110 110 109 108 107 107 107 104 102 104 106 103 97 101 103 101 94 91 90 90 87 85 83 80 77 73 71 79 76
163 152 153 149 142 139 139 140 140 139 140 140 139 140 141 140 138 134 130 125 122 119 117 113 111 110 111 111 111 110 110 110 110 112 113 111 110 108 106 106 105 103 102 101 100 101 103 103 103 104 106 107 108 109 110 110 111 111 111 109 109 108 106 103 101 99 100 92 92 98 103 100 96 94 94 93 91 88 87 85 81 73 74 78 75
140 150 152 147 141 137 136 139 142 141 141 142 143 144 146 146 144 139 136 131 126 124 121 120 120 117 113 113 112 111 112 112 112 113 114 117 116 116 113 113 112 109 109 109 108 107 110 110 108 107 107 109 110 114 114 114 112 112 112 111 110 109 107 105 101 95 89 86 86 96 101 100 97 95 94 93 93 92 90 88 86 84 84 82 80
142 150 150 147 139 138 139 137 141 145 146 150 151 150 152 151 149 144 137 134 130 129 127 126 124 122 120 115 113 115 116 116 116 116 116 119 121 120 121 118 115 113 112 112 112 111 113 113 110 109 109 111 114 116 118 117 113 113 113 111 111 109 106 104 99 96 95 88 77 61 56 84 97 99 98 96 93 91 92 90 89 88 85 82 82
140 141 139 138 138 137 137 134 138 148 152 155 157 155 155 153 152 149 142 138 135 129 132 132 132 130 124 121 119 113 110 114 116 115 116 117 120 122 122 118 115 113 113 112 112 113 114 114 111 111 111 114 116 116 117 115 115 113 110 110 112 108 105 104 102 100 96 87 74 61 65 81 89 96 96 97 97 97 95 92 89 87 85 86 85
138 135 133 135 132 133 125 123 134 146 152 157 162 161 155 153 153 151 146 142 140 132 134 136 136 131 129 126 122 118 113 107 104 107 107 112 114 117 115 116 114 114 114 115 114 114 117 118 116 114 113 115 117 117 117 117 111 100 102 111 117 113 109 104 102 102 98 93 79 62 63 82 113 110 108 105 103 102 97 94 91 89 89 88 86
131 131 137 132 132 133 125 124 133 145 155 158 161 164 159 153 151 150 149 147 144 139 133 131 132 133 130 127 126 123 117 111 104 102 102 99 105 112 118 117 119 116 117 116 115 116 119 121 117 117 114 115 116 117 115 111 106 94 91 93 110 119 111 106 106 104 96 86 80 71 53 56 95 105 105 105 105 102 101 99 96 94 95 92 89
111 122 121 120 127 131 125 129 136 138 148 157 159 161 161 156 153 153 154 151 148 143 129 132 133 135 131 128 125 126 125 118 112 108 107 100 95 105 110 119 120 120 120 118 116 115 116 118 122 120 115 114 117 116 113 109 96 85 87 78 68 81 74 95 107 111 108 101 95 75 57 50 74 110 114 110 112 108 102 96 94 93 91 88 84
114 113 114 116 128 131 125 127 130 133 141 150 155 157 157 155 156 158 157 153 150 144 136 136 138 136 129 127 126 125 125 121 119 115 111 108 97 92 105 120 115 115 110 110 113 113 117 132 124 121 118 115 117 116 109 101 93 87 85 82 73 64 61 72 113 114 109 110 104 94 78 53 55 106 116 109 103 104 102 94 95 97 94 92 89
106 108 114 114 131 131 125 125 126 127 136 144 146 148 151 144 154 156 153 149 145 140 138 137 140 135 130 128 124 125 124 120 121 118 113 109 109 104 102 105 106 103 103 105 109 107 117 123 121 126 120 117 117 112 102 95 86 90 90 84 74 64 55 61 117 123 119 122 120 120 115 96 49 105 115 115 117 110 108 109 113 104 98 97 95
113 115 113 120 135 120 113 115 117 119 125 133 137 138 149 141 144 139 152 152 148 143 140 137 137 131 129 128 127 129 130 125 123 119 112 111 114 113 108 105 100 97 97 102 105 110 115 114 120 123 123 118 112 101 98 94 88 87 90 84 74 56 27 99 140 135 129 125 127 133 121 108 66 84 119 116 113 111 110 108 106 104 102 99 95
121 113 119 139 126 105 105 107 106 110 120 124 136 129 146 135 134 131 145 147 146 139 133 130 133 132 129 130 126 126 126 126 125 119 113 111 114 115 110 106 102 101 102 109 109 115 119 125 134 128 127 120 111 103 100 99 92 82 83 89 85 59 17 94 130 131 132 130 126 124 119 116 127 125 122 119 116 113 114 114 111 106 102 97 94
133 117 100 90 107 105 95 96 97 101 106 105 114 119 127 131 128 126 135 86 99 130 133 129 131 129 130 130 123 124 124 122 122 118 113 111 111 111 109 106 106 108 111 113 117 121 126 130 133 133 137 129 119 87 83 88 95 95 89 90 86 63 46 78 115 126 129 130 124 121 122 131 130 131 127 122 121 120 120 119 115 108 103 100 96
129 110 104 108 121 110 87 84 85 90 96 101 102 108 116 118 117 116 117 141 137 155 123 129 121 120 121 123 121 122 124 124 124 124 118 108 106 108 111 109 108 110 119 112 116 121 126 126 127 128 137 130 120 106 79 74 78 88 83 72 78 68 58 59 113 122 135 137 131 126 119 123 128 130 130 124 122 120 118 117 115 111 106 102 99
135 123 111 86 87 106 99 86 82 86 88 93 100 107 109 107 112 118 116 112 123 169 124 116 116 116 118 118 121 125 127 126 124 125 121 109 111 113 113 111 110 111 111 111 114 121 124 126 128 138 137 126 115 111 91 80 77 75 64 47 51 64 78 62 118 119 133 136 128 124 122 122 125 130 132 129 124 125 123 116 114 115 108 104 101
127 121 103 95 80 81 93 99 87 82 77 84 95 107 109 115 117 125 120 117 129 136 124 123 122 123 123 124 128 129 127 125 124 124 121 117 121 120 120 119 118 114 113 112 117 122 126 130 134 137 138 135 120 114 103 93 78 56 56 40 43 54 74 113 111 125 129 131 124 109 117 127 129 137 136 132 127 126 125 121 118 114 116 112 105
128 119 110 102 97 82 80 90 101 88 81 77 90 99 109 117 128 128 131 130 130 130 131 130 130 127 130 132 134 134 134 132 131 130 127 125 121 117 121 119 118 117 116 116 121 125 131 136 140 140 141 141 128 108 101 95 83 54 44 46 33 25 57 124 132 127 137 143 130 119 120 111 137 136 137 138 137 131 135 135 126 119 119 118 110
132 130 125 121 110 107 101 90 85 76 71 83 96 100 100 111 125 136 139 141 137 137 136 135 135 135 138 141 143 143 140 137 137 137 134 127 126 125 124 122 120 119 119 124 128 128 133 135 141 140 146 145 140 115 97 96 79 62 31 41 36 24 55 130 128 137 147 150 123 112 120 138 135 137 138 134 134 140 137 133 132 126 122 119 117
138 138 142 137 133 126 120 116 106 96 91 91 86 113 119 119 131 138 139 145 143 142 145 145 143 144 146 151 149 145 143 139 140 140 135 134 133 131 127 126 126 124 124 128 133 135 136 136 140 142 142 143 140 102 94 88 75 50 6 32 39 40 44 128 135 143 144 139 145 132 147 145 142 140 140 141 139 141 136 133 134 133 126 120 119
137 140 138 132 127 124 127 118 123 131 133 138 134 134 133 131 129 141 146 140 148 147 152 153 154 150 156 155 150 147 146 147 148 142 139 141 136 134 132 129 129 129 129 129 134 140 141 140 141 142 140 130 125 90 81 84 68 38 355 35 51 43 32 140 134 134 135 157 150 149 158 150 148 146 139 139 147 145 144 144 138 133 129 126 122
119 132 133 131 130 133 138 140 158 159 156 161 161 145 149 135 134 142 146 146 148 162 159 165 161 161 155 146 136 139 132 148 147 143 144 145 142 138 135 129 130 130 129 132 138 144 144 139 141 144 137 129 138 200 216 106 89 50 357 36 62 29 57 123 124 133 145 158 155 162 155 153 152 148 145 147 152 151 150 152 149 134 129 129 126
144 142 146 146 144 150 157 159 167 180 173 169 174 162 154 131 137 134 134 141 149 153 167 161 166 180 152 141 140 123 122 112 124 148 139 147 146 139 136 133 131 130 129 134 141 146 146 144 144 143 137 135 157 221 299 25 345 360 353 42 66 40 60 120 134 141 148 158 162 170 158 158 155 152 150 151 156 154 158 170 157 139 135 131 127
115 129 154 160 159 152 152 167 180 186 181 183 179 185 158 133 147 132 143 160 178 154 177 170 168 170 178 163 130 129 123 118 131 145 137 154 151 144 136 133 130 131 130 135 140 144 146 144 142 137 138 147 153 191 316 37 325 323 14 49 70 63 67 128 144 151 157 163 167 170 162 160 159 156 154 159 157 164 165 173 156 147 139 135 133
155 156 158 132 131 150 165 174 183 185 181 185 177 173 150 138 154 141 144 156 157 163 171 180 181 184 145 106 117 135 127 144 159 154 141 132 153 145 141 138 136 132 134 137 147 148 150 150 144 144 145 150 170 151 273 297 319 344 336 68 83 76 106 144 162 160 155 169 175 169 164 163 161 161 160 160 164 166 164 163 161 154 151 145 139
137 111 116 137 143 143 147 156 164 164 169 180 159 161 152 137 135 153 144 138 170 173 187 243 134 123 136 134 122 122 115 105 97 107 108 127 129 125 145 133 127 127 131 126 142 147 137 129 139 136 142 156 175 207 189 254 241 291 295 261 114 114 138 149 172 166 171 168 178 170 167 166 166 165 164 166 168 167 173 178 178 168 169 162 155
115 89 105 90 96 129 127 114 115 141 139 143 141 160 137 138 132 137 116 98 116 92 72 116 146 149 151 145 130 117 116 121 119 124 105 117 105 142 148 129 126 133 140 139 147 138 141 143 140 145 177 182 190 221 209 202 240 254 262 257 197 133 168 154 177 186 177 165 181 175 176 176 171 171 170 168 172 174 173 185 180 170 179 172 162
104 111 109 108 100 98 102 115 132 117 102 105 82 84 94 101 108 126 122 113 111 109 100 113 144 158 138 137 129 142 147 135 94 202 146 146 151 149 139 127 136 145 151 146 161 164 161 147 151 167 168 209 235 232 228 200 191 214 240 239 220 132 169 158 178 186 184 175 184 180 183 177 173 175 173 174 175 177 172 181 185 172 183 181 173
103 115 107 113 111 108 110 84 95 126 124 109 108 104 106 102 119 109 101 132 109 101 107 131 129 134 147 137 133 145 150 134 145 186 102 157 157 151 151 137 137 145 153 153 161 180 179 160 162 171 181 202 226 247 247 232 196 193 223 226 223 136 168 167 172 190 188 179 184 187 184 179 173 177 177 180 179 179 179 184 182 189 187 194 192
107 107 114 98 92 104 90 84 89 118 128 117 109 105 95 95 97 108 118 129 107 110 115 119 108 88 76 97 130 143 123 116 140 158 164 216 159 149 157 149 132 149 145 178 177 186 204 175 170 184 194 208 217 232 240 250 227 196 210 229 212 143 163 160 171 188 208 185 185 190 188 182 178 181 185 185 184 184 186 185 192 192 193 189 187
124 119 100 99 92 75 67 61 72 101 117 109 110 106 124 118 120 129 138 120 112 120 117 95 67 81 95 81 88 95 87 111 148 154 168 199 158 146 152 152 133 128 155 168 210 205 215 193 181 184 193 208 220 226 214 229 231 222 213 210 207 159 157 164 170 185 196 193 191 203 193 189 185 187 187 188 187 187 191 186 189 192 192 190 184
113 102 104 107 101 82 65 60 65 75 84 103 111 118 126 122 139 155 130 134 131 114 108 110 59 57 64 34 70 114 120 158 143 146 130 199 172 186 172 145 141 141 126 143 107 226 228 204 187 192 211 209 219 218 211 218 222 218 222 221 196 157 162 168 162 183 186 188 196 204 213 200 194 192 191 192 191 190 193 191 184 186 195 196 192
105 111 117 120 90 88 78 67 71 75 81 83 100 126 127 135 125 124 140 157 151 155 144 136 148 206 181 97 168 173 138 146 141 146 206 191 193 192 153 163 171 168 145 132 137 165 235 222 126 158 171 195 220 232 213 207 209 214 211 225 203 171 161 166 172 178 187 191 196 203 205 211 210 203 199 193 195 196 194 194 186 192 199 196 199
116 125 126 105 104 98 91 82 80 79 87 92 106 122 123 118 119 121 134 135 142 157 138 135 144 171 165 134 280 219 48 136 157 176 184 191 186 181 177 196 181 173 170 166 143 151 258 283 176 218 223 241 258 220 213 202 209 208 205 212 192 202 170 165 175 178 179 185 197 200 205 206 210 215 211 205 197 200 193 198 187 198 197 195 201
130 126 113 114 122 105 108 96 83 89 94 98 103 102 107 111 92 75 66 125 140 143 156 167 154 163 159 179 192 172 131 165 179 172 192 156 165 180 183 182 173 177 167 167 174 179 220 245 196 291 281 223 333 270 194 200 213 206 199 197 192 199 192 164 177 185 184 185 190 193 198 202 206 207 216 214 206 203 202 198 190 199 198 198 203
126 128 130 142 124 125 116 97 106 96 88 93 105 117 128 118 101 66 39 97 101 98 153 154 130 105 145 198 165 169 163 182 192 175 145 152 48 301 200 169 168 164 179 186 184 188 185 201 241 239 243 226 197 231 207 198 193 194 198 192 197 197 195 202 167 185 190 192 184 193 191 197 201 208 208 213 214 213 208 199 187 198 196 199 200
139 140 135 135 130 130 118 119 112 105 103 111 121 125 129 118 103 91 69 59 78 82 60 66 92 75 70 64 67 194 164 170 171 143 142 147 180 223 225 154 161 164 171 177 153 185 190 201 232 227 239 225 240 235 197 202 183 186 191 187 195 182 196 205 195 180 194 184 195 193 194 197 199 203 205 205 211 217 204 192 189 195 193 200 201
142 141 141 138 133 136 126 129 134 132 130 123 122 124 117 116 100 88 89 79 77 60 70 107 69 59 24 26 37 51 63 151 147 116 107 168 171 176 84 332 330 150 127 169 187 211 189 192 228 238 223 230 237 264 221 225 191 194 168 182 184 187 190 197 208 194 172 186 196 198 195 203 204 204 204 205 207 210 212 199 191 195 194 193 201
148 146 148 145 148 147 144 146 155 152 148 150 158 149 113 66 47 62 85 78 80 84 85 91 78 64 41 52 59 55 48 47 60 75 91 112 122 146 178 194 227 181 168 96 241 239 188 231 248 255 239 239 238 224 239 234 220 198 186 175 182 182 197 196 203 204 177 190 195 194 198 198 199 203 202 206 207 206 212 212 202 196 196 196 200
148 148 148 148 142 147 147 155 155 164 164 163 124 67 72 57 45 44 63 79 70 60 77 77 73 54 46 39 62 72 61 59 60 55 60 71 90 114 136 183 132 136 184 208 199 218 243 222 234 250 338 284 262 269 229 251 236 201 190 194 177 192 200 206 198 199 210 197 193 198 194 198 197 198 201 203 208 205 208 210 211 201 202 200 199
149 152 150 150 148 150 154 158 164 171 156 131 102 89 75 79 90 41 55 56 88 95 74 108 100 79 67 46 38 57 65 64 68 69 72 75 60 43 3 118 135 139 181 225 260 255 250 237 230 227 235 266 283 216 76 34 338 294 215 228 203 193 201 204 205 207 208 215 202 189 194 196 196 198 199 203 204 206 206 209 209 206 201 205 201
154 154 151 160 161 160 158 170 180 163 155 159 146 143 124 89 64 153 148 229 123 112 99 108 108 123 96 73 54 56 59 49 42 55 60 58 52 54 53 3 80 130 155 213 227 215 226 249 263 158 176 253 239 206 92 96 113 286 335 331 294 237 212 196 206 216 219 215 214 194 196 191 201 199 201 201 204 205 206 207 208 205 201 199 207
172 161 161 167 170 162 168 178 166 165 169 172 173 156 175 168 164 183 165 187 118 105 106 115 140 120 91 91 93 76 69 54 25 17 25 50 42 35 27 355 352 1 182 202 227 245 225 219 214 280 197 217 232 181 163 110 245 196 210 280 298 276 234 206 220 223 222 226 217 214 198 195 201 203 201 198 204 206 208 207 206 206 201 199 200
164 168 168 159 165 169 184 172 174 170 175 170 154 167 179 144 155 166 156 147 312 126 133 176 127 75 48 99 105 88 73 63 53 28 21 12 17 50 47 50 37 23 4 330 328 309 298 302 230 220 251 214 199 168 185 170 218 60 44 39 262 220 277 274 250 243 235 228 224 222 217 209 203 200 197 197 202 204 207 204 205 206 203 201 199
164 168 165 168 169 177 182 174 178 180 167 169 169 169 147 149 131 131 120 111 160 89 61 40 51 64 58 36 75 83 82 75 77 81 77 60 62 44 27 48 52 56 61 10 351 330 336 346 344 283 199 276 72 316 17 248 182 173 259 199 232 168 233 243 235 246 210 221 226 232 221 223 215 200 192 201 203 202 204 199 204 203 204 201 199
174 174 174 174 177 181 183 177 176 179 171 160 147 143 116 104 101 82 88 74 49 46 62 30 19 118 98 57 125 121 106 88 66 96 85 68 53 42 40 30 31 29 44 44 30 348 335 321 325 313 213 271 249 164 204 224 242 284 186 111 1 292 224 244 194 260 253 236 236 234 235 229 222 209 195 206 201 203 201 202 204 204 204 202 202
180 184 177 179 174 177 177 173 173 173 160 157 152 150 141 138 135 128 122 115 121 129 154 163 153 149 186 257 301 126 126 105 72 57 52 61 49 50 52 41 37 30 34 49 44 34 22 19 341 312 307 201 250 232 191 235 221 224 259 188 118 204 281 300 104 251 324 240 249 238 230 230 227 219 215 205 194 198 198 204 201 205 203 203 204
190 178 178 179 176 174 177 172 171 174 160 156 157 143 140 146 153 159 158 164 162 214 212 192 154 182 126 128 195 337 26 90 56 78 98 84 76 62 63 59 56 46 43 44 40 32 15 29 11 12 319 317 72 293 278 258 305 266 217 251 147 176 271 143 246 6 306 310 280 245 247 233 229 228 224 222 208 198 200 201 200 203 202 204 204
180 171 176 175 177 179 176 173 170 171 167 156 158 156 147 147 141 143 153 153 170 179 185 178 173 149 129 135 73 327 342 227 67 30 45 81 91 67 66 59 50 36 50 57 44 17 23 27 41 39 24 350 322 319 313 326 256 307 343 277 286 253 233 252 219 187 180 240 301 319 295 258 227 233 228 222 213 209 203 207 207 203 204 206 205
168 176 182 184 180 175 173 167 171 172 169 159 156 162 149 156 154 149 150 172 166 168 161 144 146 130 109 57 109 334 349 39 84 83 61 85 79 86 69 56 47 21 32 25 24 35 44 40 32 28 25 7 354 295 324 293 241 271 300 284 246 239 257 255 265 214 180 199 268 262 282 318 290 251 238 238 234 226 212 209 209 207 205 206 205
184 183 179 168 171 170 173 172 176 177 169 163 156 161 154 146 148 164 162 170 167 148 140 152 150 137 136 181 148 155 280 72 73 80 89 88 85 74 65 53 35 25 28 16 11 19 17 29 56 65 56 34 358 4 323 296 304 289 248 255 259 297 298 270 243 239 260 243 253 257 251 270 285 285 291 264 246 235 230 224 218 215 211 207 209
182 176 170 173 171 175 176 179 182 173 170 164 160 165 163 160 163 171 171 169 173 157 150 162 145 132 157 201 191 225 275 245 32 75 99 84 78 78 64 43 35 34 33 28 26 16 11 9 10 31 48 49 28 17 5 341 308 306 296 269 253 245 251 256 254 238 217 228 237 250 262 250 240 282 279 260 250 241 233 226 225 229 223 212 212